Data No,UTC Date,UTC Time,Latitude,Longitude,Course(deg),Temp(degC),Sal(psu)
737,2023/11/13,12:16,35-35.77N,139-47.10E,222,18.936,30.7205
738,2023/11/13,12:17,35-35.57N,139-47.00E,189,19.081,30.7593
739,2023/11/13,12:18,35-35.39N,139-47.08E,149,19.137,30.8766
740,2023/11/13,12:19,35-35.23N,139-47.26E,137,19.163,30.8357
741,2023/11/13,12:20,35-35.04N,139-47.47E,137,19.119,30.773
742,2023/11/13,12:21,35-34.85N,139-47.70E,136,19.134,30.7707
743,2023/11/13,12:22,35-34.65N,139-47.94E,132,19.168,30.8613
744,2023/11/13,12:23,35-34.48N,139-48.21E,127,19.114,30.9683
745,2023/11/13,12:24,35-34.29N,139-48.51E,127,19.023,30.9734
746,2023/11/13,12:25,35-34.11N,139-48.81E,127,18.974,30.9433
747,2023/11/13,12:26,35-33.93N,139-49.10E,126,18.922,30.9626
748,2023/11/13,12:27,35-33.75N,139-49.40E,126,18.805,30.942
749,2023/11/13,12:28,35-33.57N,139-49.70E,126,18.758,30.9191
750,2023/11/13,12:29,35-33.38N,139-50.01E,127,18.652,31.0233
751,2023/11/13,12:30,35-33.20N,139-50.31E,127,18.585,31.0668
752,2023/11/13,12:31,35-32.98N,139-50.58E,140,18.53,30.9935
753,2023/11/13,12:32,35-32.68N,139-50.71E,170,18.71,30.9655
754,2023/11/13,12:33,35-32.38N,139-50.74E,175,18.869,31.2198
755,2023/11/13,12:34,35-32.06N,139-50.78E,174,18.823,31.4068
756,2023/11/13,12:35,35-31.77N,139-50.81E,174,18.743,31.4367
757,2023/11/13,12:36,35-31.45N,139-50.85E,175,18.757,31.3589
758,2023/11/13,12:37,35-31.12N,139-50.88E,176,18.776,31.3588
759,2023/11/13,12:38,35-30.81N,139-50.86E,184,18.729,31.3956
760,2023/11/13,12:39,35-30.49N,139-50.82E,185,18.83,31.4047
761,2023/11/13,12:40,35-30.18N,139-50.79E,185,18.957,31.558
762,2023/11/13,12:41,35-29.85N,139-50.75E,185,18.974,31.7237
763,2023/11/13,12:42,35-29.52N,139-50.72E,185,19.018,31.8164
764,2023/11/13,12:43,35-29.22N,139-50.63E,201,19.043,31.9016
765,2023/11/13,12:44,35-28.97N,139-50.36E,229,19.042,31.9507
766,2023/11/13,12:45,35-28.79N,139-50.07E,231,19.049,31.9693
767,2023/11/13,12:46,35-28.59N,139-49.77E,232,19.047,31.9818
768,2023/11/13,12:47,35-28.39N,139-49.45E,231,19.03,31.9965
769,2023/11/13,12:48,35-28.19N,139-49.15E,231,19.025,32.0005
770,2023/11/13,12:49,35-27.99N,139-48.83E,231,18.961,31.9953
771,2023/11/13,12:50,35-27.79N,139-48.53E,231,18.903,31.936
772,2023/11/13,12:51,35-27.59N,139-48.21E,232,18.794,31.8693
773,2023/11/13,12:52,35-27.39N,139-47.89E,232,18.749,31.7681
774,2023/11/13,12:53,35-27.19N,139-47.58E,231,18.764,31.6776
775,2023/11/13,12:54,35-26.99N,139-47.26E,232,18.738,31.6729
776,2023/11/13,12:55,35-26.78N,139-46.95E,232,18.697,31.6446
777,2023/11/13,12:56,35-26.58N,139-46.62E,232,18.712,31.5767
778,2023/11/13,12:57,35-26.39N,139-46.32E,232,18.761,31.5786
779,2023/11/13,12:58,35-26.18N,139-45.99E,232,18.847,31.6943
780,2023/11/13,12:59,35-26.00N,139-45.69E,232,18.847,31.8515
781,2023/11/13,13:00,35-25.80N,139-45.37E,232,18.832,31.9081
782,2023/11/13,13:01,35-25.60N,139-45.06E,233,18.816,31.9249
783,2023/11/13,13:02,35-25.41N,139-44.73E,235,19.037,31.9636
784,2023/11/13,13:03,35-25.23N,139-44.41E,234,19.106,32.1011
785,2023/11/13,13:04,35-25.05N,139-44.09E,234,19.122,32.164
786,2023/11/13,13:05,35-24.86N,139-43.77E,234,19.122,32.1941
787,2023/11/13,13:06,35-24.68N,139-43.45E,234,19.133,32.2074
788,2023/11/13,13:07,35-24.45N,139-43.15E,218,19.145,32.2403
789,2023/11/13,13:08,35-24.20N,139-42.98E,206,19.157,32.2702
790,2023/11/13,13:09,35-23.91N,139-42.82E,205,19.147,32.2931
791,2023/11/13,13:10,35-23.63N,139-42.64E,205,19.154,32.3036
792,2023/11/13,13:11,35-23.34N,139-42.47E,206,19.145,32.3078
793,2023/11/13,13:12,35-23.04N,139-42.35E,190,19.138,32.3097
794,2023/11/13,13:13,35-22.72N,139-42.36E,177,19.138,32.3108
795,2023/11/13,13:14,35-22.42N,139-42.38E,177,19.132,32.3138
796,2023/11/13,13:15,35-22.10N,139-42.40E,177,19.044,32.2885
797,2023/11/13,13:16,35-21.77N,139-42.42E,176,19.049,32.2188
798,2023/11/13,13:17,35-21.45N,139-42.44E,177,19.076,32.1687
799,2023/11/13,13:18,35-21.14N,139-42.46E,177,19.091,32.1656
800,2023/11/13,13:19,35-20.85N,139-42.47E,178,19.095,32.1766
801,2023/11/13,13:20,35-20.60N,139-42.48E,178,19.113,32.2019
802,2023/11/13,13:21,35-20.37N,139-42.50E,177,19.086,32.2214
803,2023/11/13,13:22,35-20.14N,139-42.51E,177,19.069,32.2104
804,2023/11/13,13:23,35-19.91N,139-42.52E,177,19.073,32.2018
805,2023/11/13,13:24,35-19.72N,139-42.61E,151,19.056,32.2035
806,2023/11/13,13:25,35-19.55N,139-42.74E,147,19.054,32.2115
807,2023/11/13,13:26,35-19.38N,139-42.87E,147,19.042,32.2001
808,2023/11/13,13:27,35-19.21N,139-43.01E,146,19.044,32.1877
809,2023/11/13,13:28,35-19.03N,139-43.16E,146,19.101,32.1837
810,2023/11/13,13:29,35-18.83N,139-43.32E,146,19.104,32.2323
811,2023/11/13,13:30,35-18.67N,139-43.45E,147,19.077,32.2791
812,2023/11/13,13:31,35-18.49N,139-43.60E,146,19.171,32.2968
813,2023/11/13,13:32,35-18.31N,139-43.74E,146,19.23,32.3774
814,2023/11/13,13:33,35-18.14N,139-43.88E,145,19.344,32.45
815,2023/11/13,13:34,35-17.96N,139-44.04E,145,19.38,32.5521
816,2023/11/13,13:35,35-17.76N,139-44.20E,145,19.408,32.6469
817,2023/11/13,13:36,35-17.60N,139-44.34E,144,19.421,32.6828
818,2023/11/13,13:37,35-17.41N,139-44.50E,145,19.375,32.7445
819,2023/11/13,13:38,35-17.23N,139-44.65E,145,19.393,32.7485
820,2023/11/13,13:39,35-17.04N,139-44.81E,145,19.403,32.7733
821,2023/11/13,13:40,35-16.86N,139-44.97E,145,19.382,32.8043
822,2023/11/13,13:41,35-16.68N,139-45.13E,143,19.391,32.8085
823,2023/11/13,13:42,35-16.50N,139-45.29E,143,19.381,32.8108
824,2023/11/13,13:43,35-16.33N,139-45.44E,144,19.372,32.8026
825,2023/11/13,13:44,35-16.14N,139-45.60E,145,19.35,32.7895
826,2023/11/13,13:45,35-15.96N,139-45.76E,145,19.338,32.7728
827,2023/11/13,13:46,35-15.78N,139-45.91E,144,19.328,32.7589
828,2023/11/13,13:47,35-15.59N,139-46.08E,143,19.322,32.7479
829,2023/11/13,13:48,35-15.39N,139-46.21E,160,19.313,32.746
830,2023/11/13,13:49,35-15.18N,139-46.25E,176,19.278,32.7464
831,2023/11/13,13:50,35-14.95N,139-46.26E,176,19.198,32.7364
832,2023/11/13,13:51,35-14.73N,139-46.29E,175,19.117,32.6815
833,2023/11/13,13:52,35-14.51N,139-46.31E,176,19.078,32.6042
834,2023/11/13,13:53,35-14.28N,139-46.32E,176,19.077,32.5613
835,2023/11/13,13:54,35-14.05N,139-46.33E,178,19.065,32.5526
836,2023/11/13,13:55,35-13.82N,139-46.33E,179,19.059,32.5523
837,2023/11/13,13:56,35-13.59N,139-46.34E,179,19.105,32.5534
838,2023/11/13,13:57,35-13.35N,139-46.34E,180,19.137,32.5889
839,2023/11/13,13:58,35-13.13N,139-46.34E,180,19.199,32.6396
840,2023/11/13,13:59,35-12.91N,139-46.33E,180,19.175,32.7008
841,2023/11/13,14:00,35-12.68N,139-46.32E,187,19.198,32.6974
842,2023/11/13,14:01,35-12.46N,139-46.25E,195,19.229,32.721
843,2023/11/13,14:02,35-12.22N,139-46.17E,195,19.298,32.751
844,2023/11/13,14:03,35-11.95N,139-46.08E,195,19.288,32.8081
845,2023/11/13,14:04,35-11.67N,139-45.99E,195,19.268,32.821
846,2023/11/13,14:05,35-11.37N,139-45.90E,193,19.3,32.8192
847,2023/11/13,14:06,35-11.06N,139-45.80E,194,19.195,32.8666
848,2023/11/13,14:07,35-10.73N,139-45.69E,197,19.247,32.7728
849,2023/11/13,14:08,35-10.44N,139-45.57E,197,19.422,32.7804
850,2023/11/13,14:09,35-10.12N,139-45.45E,198,20.869,32.9353
851,2023/11/13,14:10,35-09.81N,139-45.32E,197,21.591,33.5414
852,2023/11/13,14:11,35-09.51N,139-45.20E,200,21.713,33.9115
853,2023/11/13,14:12,35-09.20N,139-45.05E,200,21.748,34.0623
854,2023/11/13,14:13,35-08.89N,139-44.89E,203,21.834,34.108
855,2023/11/13,14:14,35-08.60N,139-44.73E,205,21.848,34.1227
856,2023/11/13,14:15,35-08.29N,139-44.56E,205,21.856,34.131
857,2023/11/13,14:16,35-07.99N,139-44.39E,204,21.953,34.1415
858,2023/11/13,14:17,35-07.68N,139-44.22E,204,21.981,34.139
859,2023/11/13,14:18,35-07.39N,139-44.05E,205,22.004,34.1382
860,2023/11/13,14:19,35-07.08N,139-43.88E,204,22,34.1401
861,2023/11/13,14:20,35-06.76N,139-43.70E,205,21.988,34.1415
862,2023/11/13,14:21,35-06.45N,139-43.55E,201,21.948,34.1424
863,2023/11/13,14:22,35-06.13N,139-43.41E,199,21.95,34.1378
864,2023/11/13,14:23,35-05.81N,139-43.30E,194,21.95,34.1333
865,2023/11/13,14:24,35-05.49N,139-43.21E,192,22.244,34.136
866,2023/11/13,14:25,35-05.16N,139-43.14E,189,22.45,34.1871
867,2023/11/13,14:26,35-04.83N,139-43.07E,190,22.433,34.2176
868,2023/11/13,14:27,35-04.52N,139-43.01E,186,22.41,34.2207
869,2023/11/13,14:28,35-04.20N,139-42.97E,186,22.418,34.2215
870,2023/11/13,14:29,35-03.87N,139-42.93E,186,22.347,34.2228
871,2023/11/13,14:30,35-03.54N,139-42.88E,186,22.291,34.2068
872,2023/11/13,14:31,35-03.22N,139-42.84E,186,22.247,34.1907
873,2023/11/13,14:32,35-02.90N,139-42.79E,186,22.23,34.1799
874,2023/11/13,14:33,35-02.55N,139-42.75E,185,22.148,34.1786
875,2023/11/13,14:34,35-02.25N,139-42.71E,185,22.046,34.1714
876,2023/11/13,14:35,35-01.90N,139-42.68E,185,21.946,34.1596
877,2023/11/13,14:36,35-01.59N,139-42.65E,185,21.87,34.1499
878,2023/11/13,14:37,35-01.26N,139-42.61E,185,21.858,34.1404
879,2023/11/13,14:38,35-00.93N,139-42.57E,185,21.886,34.1363
880,2023/11/13,14:39,35-00.60N,139-42.53E,186,21.945,34.1357
881,2023/11/13,14:40,35-00.27N,139-42.49E,185,22.064,34.1372
882,2023/11/13,14:41,34-59.95N,139-42.45E,185,22.135,34.1474
883,2023/11/13,14:42,34-59.62N,139-42.41E,185,22.171,34.1571
884,2023/11/13,14:43,34-59.29N,139-42.39E,180,22.234,34.1627
885,2023/11/13,14:44,34-58.96N,139-42.40E,176,22.269,34.1767
886,2023/11/13,14:45,34-58.63N,139-42.42E,178,22.224,34.1808
887,2023/11/13,14:46,34-58.30N,139-42.43E,178,22.115,34.1851
888,2023/11/13,14:47,34-57.98N,139-42.48E,169,22.069,34.1847
889,2023/11/13,14:48,34-57.66N,139-42.59E,160,22.05,34.1724
890,2023/11/13,14:49,34-57.36N,139-42.75E,157,21.816,34.1646
891,2023/11/13,14:50,34-57.05N,139-42.90E,158,21.763,34.1751
892,2023/11/13,14:51,34-56.74N,139-43.05E,158,21.803,34.1835
893,2023/11/13,14:52,34-56.43N,139-43.18E,163,21.893,34.1884
894,2023/11/13,14:53,34-56.10N,139-43.30E,165,21.946,34.1889
895,2023/11/13,14:54,34-55.78N,139-43.41E,163,22.055,34.1836
896,2023/11/13,14:55,34-55.45N,139-43.53E,161,22.317,34.1855
897,2023/11/13,14:56,34-55.15N,139-43.68E,156,22.364,34.1916
898,2023/11/13,14:57,34-54.83N,139-43.87E,152,22.359,34.1917
899,2023/11/13,14:58,34-54.52N,139-44.09E,148,22.332,34.189
900,2023/11/13,14:59,34-54.26N,139-44.34E,141,22.339,34.1863
901,2023/11/13,15:00,34-54.03N,139-44.56E,141,22.349,34.1869
902,2023/11/13,15:01,34-53.79N,139-44.84E,136,22.342,34.187
903,2023/11/13,15:02,34-53.56N,139-45.11E,135,22.331,34.1882
904,2023/11/13,15:03,34-53.29N,139-45.43E,136,22.3,34.1865
905,2023/11/13,15:04,34-53.06N,139-45.69E,136,22.256,34.1873
906,2023/11/13,15:05,34-52.82N,139-45.97E,136,22.181,34.1805
907,2023/11/13,15:06,34-52.59N,139-46.23E,137,22.488,34.1764
908,2023/11/13,15:07,34-52.39N,139-46.45E,137,22.726,34.2392
909,2023/11/13,15:08,34-52.15N,139-46.72E,137,22.829,34.26
910,2023/11/13,15:09,34-51.90N,139-47.00E,136,22.793,34.2661
911,2023/11/13,15:10,34-51.68N,139-47.27E,136,22.863,34.2718
912,2023/11/13,15:11,34-51.50N,139-47.50E,132,22.909,34.276
913,2023/11/13,15:12,34-51.31N,139-47.79E,124,22.967,34.2724
914,2023/11/13,15:13,34-51.16N,139-48.12E,116,23.038,34.2697
915,2023/11/13,15:14,34-51.04N,139-48.45E,115,23.127,34.2663
916,2023/11/13,15:15,34-50.92N,139-48.79E,110,23.213,34.2641
917,2023/11/13,15:16,34-50.82N,139-49.15E,110,23.32,34.2595
918,2023/11/13,15:17,34-50.71N,139-49.49E,110,23.46,34.2616
919,2023/11/13,15:18,34-50.63N,139-49.85E,104,23.553,34.2704
920,2023/11/13,15:19,34-50.55N,139-50.20E,104,23.594,34.2767
921,2023/11/13,15:20,34-50.47N,139-50.57E,104,23.632,34.2812
922,2023/11/13,15:21,34-50.39N,139-50.92E,105,23.616,34.2817
923,2023/11/13,15:22,34-50.31N,139-51.28E,105,23.613,34.2817
924,2023/11/13,15:23,34-50.25N,139-51.65E,100,23.608,34.2808
925,2023/11/13,15:24,34-50.19N,139-52.01E,100,23.61,34.2817
926,2023/11/13,15:25,34-50.14N,139-52.39E,98,23.677,34.2838
927,2023/11/13,15:26,34-50.12N,139-52.74E,90,23.73,34.2828
928,2023/11/13,15:27,34-50.14N,139-53.11E,83,23.776,34.2828
929,2023/11/13,15:28,34-50.21N,139-53.47E,74,23.79,34.2829
930,2023/11/13,15:29,34-50.32N,139-53.81E,66,23.786,34.282
931,2023/11/13,15:30,34-50.45N,139-54.15E,65,23.801,34.284
932,2023/11/13,15:31,34-50.57N,139-54.47E,66,23.81,34.2848
933,2023/11/13,15:32,34-50.69N,139-54.81E,66,23.819,34.2866
934,2023/11/13,15:33,34-50.81N,139-55.15E,66,23.825,34.2877
935,2023/11/13,15:34,34-50.93N,139-55.49E,66,23.855,34.2886
936,2023/11/13,15:35,34-51.05N,139-55.83E,66,23.86,34.289
937,2023/11/13,15:36,34-51.17N,139-56.16E,66,23.866,34.2884
938,2023/11/13,15:37,34-51.30N,139-56.50E,66,23.889,34.2885
939,2023/11/13,15:38,34-51.42N,139-56.84E,66,23.901,34.2893
940,2023/11/13,15:39,34-51.54N,139-57.18E,66,23.924,34.2896
941,2023/11/13,15:40,34-51.67N,139-57.52E,65,23.929,34.289
942,2023/11/13,15:41,34-51.79N,139-57.86E,66,23.939,34.2885
943,2023/11/13,15:42,34-51.93N,139-58.22E,66,23.962,34.2884
944,2023/11/13,15:43,34-52.05N,139-58.56E,65,23.977,34.2888
945,2023/11/13,15:44,34-52.18N,139-58.90E,66,23.997,34.2891
946,2023/11/13,15:45,34-52.31N,139-59.25E,65,24.014,34.2883
947,2023/11/13,15:46,34-52.44N,139-59.59E,65,24.038,34.2883
948,2023/11/13,15:47,34-52.57N,139-59.93E,65,24.052,34.2876
949,2023/11/13,15:48,34-52.70N,140-00.28E,65,24.089,34.2876
950,2023/11/13,15:49,34-52.84N,140-00.63E,65,24.103,34.2869
951,2023/11/13,15:50,34-52.96N,140-00.98E,65,24.108,34.2856
952,2023/11/13,15:51,34-53.10N,140-01.33E,65,24.105,34.2826
953,2023/11/13,15:52,34-53.23N,140-01.68E,65,24.083,34.2805
954,2023/11/13,15:53,34-53.36N,140-02.03E,65,24.068,34.2774
955,2023/11/13,15:54,34-53.50N,140-02.37E,65,24.055,34.2754
956,2023/11/13,15:55,34-53.65N,140-02.73E,65,24.031,34.2733
957,2023/11/13,15:56,34-53.79N,140-03.07E,61,24,34.272
958,2023/11/13,15:57,34-53.95N,140-03.41E,60,23.974,34.2693
959,2023/11/13,15:58,34-54.09N,140-03.73E,60,23.943,34.2663
960,2023/11/13,15:59,34-54.24N,140-04.07E,61,23.895,34.2643
961,2023/11/13,16:00,34-54.39N,140-04.38E,60,23.886,34.2639
962,2023/11/13,16:01,34-54.54N,140-04.72E,60,23.877,34.2693
963,2023/11/13,16:02,34-54.69N,140-05.04E,61,23.868,34.2725
964,2023/11/13,16:03,34-54.85N,140-05.39E,61,23.881,34.2757
965,2023/11/13,16:04,34-55.00N,140-05.71E,61,23.891,34.2793
966,2023/11/13,16:05,34-55.15N,140-06.04E,61,23.874,34.2804
967,2023/11/13,16:06,34-55.31N,140-06.39E,61,23.896,34.2782
968,2023/11/13,16:07,34-55.46N,140-06.71E,61,23.928,34.2788
969,2023/11/13,16:08,34-55.61N,140-07.05E,61,23.95,34.2823
970,2023/11/13,16:09,34-55.76N,140-07.39E,61,23.976,34.2859
971,2023/11/13,16:10,34-55.91N,140-07.71E,61,24.011,34.2906
972,2023/11/13,16:11,34-56.06N,140-08.05E,61,24.047,34.2948
973,2023/11/13,16:12,34-56.21N,140-08.38E,61,24.083,34.2998
974,2023/11/13,16:13,34-56.36N,140-08.72E,61,24.112,34.302
975,2023/11/13,16:14,34-56.51N,140-09.05E,61,24.147,34.3049
976,2023/11/13,16:15,34-56.66N,140-09.39E,61,24.163,34.3083
977,2023/11/13,16:16,34-56.81N,140-09.72E,62,24.152,34.3111
978,2023/11/13,16:17,34-56.96N,140-10.06E,62,24.122,34.3092
979,2023/11/13,16:18,34-57.11N,140-10.40E,61,24.078,34.3048
980,2023/11/13,16:19,34-57.26N,140-10.73E,61,24.043,34.2986
981,2023/11/13,16:20,34-57.41N,140-11.07E,62,24.028,34.2935
982,2023/11/13,16:21,34-57.56N,140-11.41E,62,24.012,34.29
983,2023/11/13,16:22,34-57.70N,140-11.75E,61,24.012,34.2878
984,2023/11/13,16:23,34-57.85N,140-12.10E,62,24.004,34.2872
985,2023/11/13,16:24,34-58.00N,140-12.43E,62,24.003,34.2871
986,2023/11/13,16:25,34-58.15N,140-12.77E,62,23.985,34.2867
987,2023/11/13,16:26,34-58.30N,140-13.13E,62,23.953,34.2857
988,2023/11/13,16:27,34-58.44N,140-13.46E,63,23.894,34.2842
989,2023/11/13,16:28,34-58.59N,140-13.82E,63,23.808,34.2817
990,2023/11/13,16:29,34-58.74N,140-14.17E,60,23.714,34.2804
991,2023/11/13,16:30,34-58.89N,140-14.50E,60,23.675,34.2754
992,2023/11/13,16:31,34-59.05N,140-14.84E,60,23.596,34.2727
993,2023/11/13,16:32,34-59.20N,140-15.17E,60,23.531,34.2708
994,2023/11/13,16:33,34-59.37N,140-15.51E,57,23.48,34.2735
995,2023/11/13,16:34,34-59.55N,140-15.81E,53,23.385,34.2768
996,2023/11/13,16:35,34-59.76N,140-16.10E,48,23.3,34.2772
997,2023/11/13,16:36,34-59.96N,140-16.39E,49,23.174,34.2804
998,2023/11/13,16:37,35-00.17N,140-16.68E,49,23.184,34.2848
999,2023/11/13,16:38,35-00.37N,140-16.96E,50,23.297,34.2835
1000,2023/11/13,16:39,35-00.57N,140-17.25E,50,23.343,34.285
1001,2023/11/13,16:40,35-00.75N,140-17.56E,55,23.288,34.2837
1002,2023/11/13,16:41,35-00.92N,140-17.89E,59,23.136,34.2843
1003,2023/11/13,16:42,35-01.07N,140-18.20E,58,22.927,34.2748
1004,2023/11/13,16:43,35-01.23N,140-18.54E,59,22.791,34.2503
1005,2023/11/13,16:44,35-01.39N,140-18.87E,60,22.736,34.22
1006,2023/11/13,16:45,35-01.55N,140-19.18E,59,22.672,34.2058
1007,2023/11/13,16:46,35-01.71N,140-19.53E,60,22.634,34.1917
1008,2023/11/13,16:47,35-01.87N,140-19.85E,60,22.576,34.1871
1009,2023/11/13,16:48,35-02.02N,140-20.19E,60,22.504,34.1818
1010,2023/11/13,16:49,35-02.18N,140-20.52E,60,22.365,34.1763
1011,2023/11/13,16:50,35-02.34N,140-20.86E,60,22.221,34.1723
1012,2023/11/13,16:51,35-02.50N,140-21.19E,60,22.118,34.1697
1013,2023/11/13,16:52,35-02.65N,140-21.51E,60,22.078,34.1759
1014,2023/11/13,16:53,35-02.81N,140-21.85E,60,22.191,34.1809
1015,2023/11/13,16:54,35-02.95N,140-22.16E,60,22.286,34.2037
1016,2023/11/13,16:55,35-03.11N,140-22.48E,59,22.27,34.2237
1017,2023/11/13,16:56,35-03.26N,140-22.81E,60,22.205,34.2428
1018,2023/11/13,16:57,35-03.42N,140-23.14E,60,21.916,34.2501
1019,2023/11/13,16:58,35-03.56N,140-23.44E,59,21.8,34.2397
1020,2023/11/13,16:59,35-03.71N,140-23.75E,60,21.812,34.2408
1021,2023/11/13,17:00,35-03.85N,140-24.06E,59,21.755,34.2461
1022,2023/11/13,17:01,35-04.00N,140-24.37E,60,21.653,34.2493
1023,2023/11/13,17:02,35-04.15N,140-24.67E,59,21.546,34.2488
1024,2023/11/13,17:03,35-04.30N,140-24.97E,58,21.539,34.2458
1025,2023/11/13,17:04,35-04.45N,140-25.25E,58,21.562,34.2457
1026,2023/11/13,17:05,35-04.59N,140-25.55E,59,21.604,34.2444
1027,2023/11/13,17:06,35-04.75N,140-25.85E,59,21.57,34.2411
1028,2023/11/13,17:07,35-04.89N,140-26.14E,57,21.55,34.2377
1029,2023/11/13,17:08,35-05.05N,140-26.43E,57,21.538,34.2376
1030,2023/11/13,17:09,35-05.21N,140-26.73E,57,21.538,34.2361
1031,2023/11/13,17:10,35-05.35N,140-27.02E,57,21.567,34.2363
1032,2023/11/13,17:11,35-05.51N,140-27.31E,57,21.581,34.24
1033,2023/11/13,17:12,35-05.67N,140-27.60E,56,21.583,34.2392
1034,2023/11/13,17:13,35-05.82N,140-27.88E,56,21.596,34.2381
1035,2023/11/13,17:14,35-05.97N,140-28.17E,56,21.593,34.2388
1036,2023/11/13,17:15,35-06.13N,140-28.46E,56,21.545,34.2418
1037,2023/11/13,17:16,35-06.29N,140-28.75E,56,21.445,34.2415
1038,2023/11/13,17:17,35-06.44N,140-29.03E,56,21.407,34.2414
1039,2023/11/13,17:18,35-06.61N,140-29.33E,56,21.415,34.2396
1040,2023/11/13,17:19,35-06.76N,140-29.62E,56,21.453,34.2393
1041,2023/11/13,17:20,35-06.92N,140-29.91E,55,21.43,34.2393
1042,2023/11/13,17:21,35-07.10N,140-30.21E,55,21.463,34.2359
1043,2023/11/13,17:22,35-07.25N,140-30.50E,56,21.509,34.2341
1044,2023/11/13,17:23,35-07.43N,140-30.77E,50,21.523,34.2318
1045,2023/11/13,17:24,35-07.62N,140-31.04E,50,21.548,34.2309
1046,2023/11/13,17:25,35-07.81N,140-31.30E,46,21.57,34.2309
1047,2023/11/13,17:26,35-08.01N,140-31.56E,46,21.604,34.2314
1048,2023/11/13,17:27,35-08.21N,140-31.81E,45,21.619,34.231
1049,2023/11/13,17:28,35-08.42N,140-32.04E,40,21.595,34.2296
1050,2023/11/13,17:29,35-08.64N,140-32.28E,41,21.576,34.2309
1051,2023/11/13,17:30,35-08.87N,140-32.50E,36,21.581,34.233
1052,2023/11/13,17:31,35-09.11N,140-32.70E,35,21.583,34.2342
1053,2023/11/13,17:32,35-09.34N,140-32.90E,35,21.579,34.2347
1054,2023/11/13,17:33,35-09.57N,140-33.10E,35,21.587,34.2351
1055,2023/11/13,17:34,35-09.81N,140-33.30E,35,21.611,34.235
1056,2023/11/13,17:35,35-10.04N,140-33.50E,35,21.674,34.2359
1057,2023/11/13,17:36,35-10.28N,140-33.71E,36,21.697,34.2363
1058,2023/11/13,17:37,35-10.51N,140-33.92E,36,21.725,34.2358
1059,2023/11/13,17:38,35-10.73N,140-34.12E,36,21.767,34.2371
1060,2023/11/13,17:39,35-10.97N,140-34.33E,36,21.798,34.2385
1061,2023/11/13,17:40,35-11.20N,140-34.53E,35,21.812,34.2391
1062,2023/11/13,17:41,35-11.42N,140-34.73E,36,21.864,34.2384
1063,2023/11/13,17:42,35-11.65N,140-34.93E,36,21.883,34.2405
1064,2023/11/13,17:43,35-11.88N,140-35.14E,36,21.924,34.2404
1065,2023/11/13,17:44,35-12.11N,140-35.35E,36,21.96,34.2409
1066,2023/11/13,17:45,35-12.34N,140-35.56E,36,21.968,34.2434
1067,2023/11/13,17:46,35-12.58N,140-35.77E,36,21.989,34.2425
1068,2023/11/13,17:47,35-12.80N,140-35.98E,36,22.02,34.2426
1069,2023/11/13,17:48,35-13.03N,140-36.17E,33,22.045,34.2428
1070,2023/11/13,17:49,35-13.28N,140-36.37E,33,22.056,34.2426
1071,2023/11/13,17:50,35-13.50N,140-36.55E,33,22.069,34.2427
1072,2023/11/13,17:51,35-13.74N,140-36.74E,32,22.078,34.2415
1073,2023/11/13,17:52,35-13.98N,140-36.92E,33,22.074,34.2417
1074,2023/11/13,17:53,35-14.21N,140-37.10E,32,22.045,34.2403
1075,2023/11/13,17:54,35-14.45N,140-37.30E,33,21.974,34.2391
1076,2023/11/13,17:55,35-14.69N,140-37.48E,33,21.953,34.2348
1077,2023/11/13,17:56,35-14.93N,140-37.67E,33,21.958,34.233
1078,2023/11/13,17:57,35-15.18N,140-37.88E,34,21.945,34.2316
1079,2023/11/13,17:58,35-15.43N,140-38.08E,33,21.959,34.2299
1080,2023/11/13,17:59,35-15.63N,140-38.24E,33,21.988,34.2296
1081,2023/11/13,18:00,35-15.85N,140-38.42E,33,22.003,34.2297
1082,2023/11/13,18:01,35-16.09N,140-38.61E,33,21.989,34.2279
1083,2023/11/13,18:02,35-16.32N,140-38.80E,33,21.979,34.2255
1084,2023/11/13,18:03,35-16.55N,140-38.99E,34,21.954,34.2214
1085,2023/11/13,18:04,35-16.79N,140-39.18E,34,21.921,34.2178
1086,2023/11/13,18:05,35-17.03N,140-39.38E,33,21.87,34.212
1087,2023/11/13,18:06,35-17.26N,140-39.57E,33,21.803,34.2045
1088,2023/11/13,18:07,35-17.49N,140-39.75E,33,21.773,34.1952
1089,2023/11/13,18:08,35-17.73N,140-39.94E,33,21.755,34.1879
1090,2023/11/13,18:09,35-17.97N,140-40.13E,33,21.739,34.1837
1091,2023/11/13,18:10,35-18.20N,140-40.31E,33,21.715,34.1806
1092,2023/11/13,18:11,35-18.44N,140-40.50E,33,21.683,34.1769
1093,2023/11/13,18:12,35-18.67N,140-40.69E,33,21.629,34.1743
1094,2023/11/13,18:13,35-18.90N,140-40.89E,34,21.611,34.1674
1095,2023/11/13,18:14,35-19.15N,140-41.08E,33,21.648,34.1642
1096,2023/11/13,18:15,35-19.37N,140-41.27E,34,21.702,34.1683
1097,2023/11/13,18:16,35-19.61N,140-41.47E,34,21.735,34.1754
1098,2023/11/13,18:17,35-19.85N,140-41.67E,34,21.751,34.1823
1099,2023/11/13,18:18,35-20.07N,140-41.85E,35,21.75,34.1863
1100,2023/11/13,18:19,35-20.31N,140-42.05E,34,21.741,34.1903
1101,2023/11/13,18:20,35-20.54N,140-42.25E,34,21.717,34.1915
1102,2023/11/13,18:21,35-20.79N,140-42.45E,34,21.678,34.1933
1103,2023/11/13,18:22,35-21.01N,140-42.64E,35,21.613,34.1961
1104,2023/11/13,18:23,35-21.25N,140-42.83E,33,21.415,34.1954
1105,2023/11/13,18:24,35-21.48N,140-43.02E,33,21.245,34.1846
1106,2023/11/13,18:25,35-21.72N,140-43.21E,33,21.207,34.1769
1107,2023/11/13,18:26,35-21.95N,140-43.41E,35,21.19,34.1758
1108,2023/11/13,18:27,35-22.18N,140-43.61E,34,21.171,34.1766
1109,2023/11/13,18:28,35-22.42N,140-43.80E,33,21.133,34.1765
1110,2023/11/13,18:29,35-22.66N,140-44.01E,34,21.129,34.1758
1111,2023/11/13,18:30,35-22.89N,140-44.20E,34,21.14,34.1763
1112,2023/11/13,18:31,35-23.13N,140-44.40E,34,21.152,34.1779
1113,2023/11/13,18:32,35-23.37N,140-44.60E,34,21.139,34.1812
1114,2023/11/13,18:33,35-23.61N,140-44.80E,35,21.114,34.18
1115,2023/11/13,18:34,35-23.85N,140-45.00E,34,21.108,34.1762
1116,2023/11/13,18:35,35-24.08N,140-45.20E,34,21.119,34.1748
1117,2023/11/13,18:36,35-24.32N,140-45.40E,34,21.113,34.1748
1118,2023/11/13,18:37,35-24.56N,140-45.60E,34,21.123,34.1737
1119,2023/11/13,18:38,35-24.79N,140-45.79E,34,21.147,34.1759
1120,2023/11/13,18:39,35-25.03N,140-45.99E,34,21.158,34.1789
1121,2023/11/13,18:40,35-25.26N,140-46.19E,34,21.136,34.1808
1122,2023/11/13,18:41,35-25.51N,140-46.39E,33,21.105,34.1752
1123,2023/11/13,18:42,35-25.75N,140-46.59E,33,21.06,34.1679
1124,2023/11/13,18:43,35-25.99N,140-46.78E,33,21.046,34.1524